HOOPOE (42718 NORAD) Tracking and Keplerian Element Data

This shows tracking and keplerian element data for the satellite.

Feedback or suggestion? Click here.




ElementValue
Catalog42718
NameHOOPOE
Epoch Orbit8907
Epoch Day345.4675705
Epoch Year2018
RAAN149.6111
Inclination51.6181
Eccentricity0.0005738
Argument of Perigee273.0061
Mean Anonmoly87.0296
Mean Motion16.07855136
Decay Rate0.00507242
L11 42718U 98067LZ 18345.46757050 .00507242 13752-3 60206-3 0 9995
L22 42718 51.6181 149.6111 0005738 273.0061 87.0296 16.07855136 89079

Live tracking and technical data element details for HOOPOE (NORAD 42718). HOOPOE can be tracked NOW for your location showing map with azimuth and elevation plus other details from your city location.

Track the satellite on the map from your city or location and see movement details for azimuth, elevation, latitude, longitude, range, height, and movement on the map or in text.







IsCatalogInMostPopularTable: catalog: 42718, numindb: 158
Update: records affected: 1



GetName: 42718 HOOPOE

Hit Count: updated at: Thu, 13 Dec 2018 04:24:40 GMT